Location: Forst
(46.9333°N, 15.4333°E)
Time: 21:43:40
(UTC+00:00)

N. Korean satellite - Pass Details

Date: 25 September 2021
Orbit: 450 x 494 km, 97.3° (Epoch: 28 October)

Event Time Altitude Azimuth Distance (km) Brightness Sun altitude
Rises 03:29:11 0° 26° (NNE) 2,529 10.8 -14.3°
Reaches altitude 10° 03:31:37 10° 44° (NE) 1,655 10.2 -13.9°
Maximum altitude 03:34:21 21° 94° (E) 1,147 9.4 -13.5°
Drops below altitude 10° 03:37:05 10° 144° (SE) 1,663 9.6 -13.0°
Sets 03:39:33 0° 161° (SSE) 2,546 10.3 -12.6°
